Hourly Data Report for February 05, 2021

TORONTO CITY
ONTARIO
Current Station Operator: ECCC - MSC

43°40'00.000" N
79°24'00.000" W
112.50 m
6158355
71508
XTO

Download Data

Hourly Data (February 2021)
Hourly Data Report for February 5, 2021
TIME
LST
Temp Definition
°C
Dew Point Definition
°C
Rel Hum Definition
%
Precip. Amount Definition
mm

Wind Dir Definition
10's deg

Wind Spd Definition
km/h
Visibility Definition
km
Stn Press Definition
kPa
Hmdx Definition


Wind Chill Definition


Weather Definition


00:00 2.8 -4.8 57 0.0       98.76     LegendNANA
01:00 0.6 -0.6 92 0.9       98.53     LegendNANA
02:00 1.1 0.3 94 1.1       98.31     LegendNANA
03:00 2.0 0.9 92 0.4       98.14     LegendNANA
04:00 2.4 0.8 89 0.4       98.01     LegendNANA
05:00 2.5 0.8 89 0.2       97.92     LegendNANA
06:00 2.8 0.7 86 0.1       97.90     LegendNANA
07:00 1.3 -1.9 79 0.0       97.99     LegendNANA
08:00 0.1 -3.7 75 0.0       98.14     LegendNANA
09:00 -0.5 -5.6 68 0.0       98.27     LegendNANA
10:00 -1.5 -7.2 65 0.0       98.34     LegendNANA
11:00 -2.0 -7.1 68 0.0       98.46     LegendNANA
12:00 -2.5 -8.3 65 0.0       98.50     LegendNANA
13:00 -2.7 -9.0 62 0.0       98.51     LegendNANA
14:00 -3.3 -10.7 56 0.0       98.60     LegendNANA
15:00 -4.2 -13.1 50 0.0       98.72     LegendNANA
16:00 -4.8 -12.7 54 0.0       98.80     LegendNANA
17:00 -5.2 -13.6 52 0.0       98.90     LegendNANA
18:00 -6.1 -14.5 51 0.0       98.98     LegendNANA
19:00 -6.4 -14.8 51 0.0       98.98     LegendNANA
20:00 -6.4 -14.9 51 0.0       99.03     LegendNANA
21:00 -6.4 -14.1 54 0.0       99.07     LegendNANA
22:00 -6.2 -13.1 58 0.0       99.13     LegendNANA
23:00 -6.0 -13.9 54 0.0       99.14     LegendNANA

Notes on Data Quality.

Legend

  • E = Estimated
  • M = Missing
  • NA = Not Available*
  • [empty] = Indicates an unobserved value
Date modified: